K4SGK Weather Reports


time (UTC)temp
F
wind
direction
speed
knots
gust
knots
rain 1hr
in
rain 24hr
in
rain mn
in
humidity
%
barometer
mb
20260505162004 67 267 4.3 8.7 0.00 0.00 0.00 58 1009.1
20260505161003 67 214 3.5 7.8 0.00 0.00 0.00 58 1009.3
20260505153003 68 216 2.6 7.0 0.00 0.00 0.00 56 1009.0
20260505152003 67 225 3.5 8.7 0.00 0.00 0.00 57 1009.1
20260505151003 67 261 2.6 7.0 0.00 0.00 0.00 58 1009.1
20260505125005 62 211 1.7 2.6 0.00 0.00 0.00 64 1008.4
20260505124005 61 233 0.9 2.6 0.00 0.00 0.00 65 1008.5
20260505123005 61 232 1.7 4.3 0.00 0.00 0.00 65 1008.5
20260505120005 61 218 0.9 2.6 0.00 0.00 0.00 63 1008.4
20260505115004 61 236 0.9 2.6 0.00 0.00 0.00 62 1008.2
20260505111004 60 234 1.7 2.6 0.00 0.00 0.00 61 1007.8
20260505101005 61 249 2.6 4.3 0.00 0.00 0.00 58 1007.5
20260505095005 62 253 2.6 5.2 0.00 0.00 0.00 57 1007.5
20260505094005 62 251 1.7 4.3 0.00 0.00 0.00 57 1007.3
20260505093004 62 261 1.7 4.3 0.00 0.00 0.00 56 1007.2
20260505092004 63 245 2.6 5.2 0.00 0.00 0.00 55 1007.3
20260505091005 63 244 2.6 5.2 0.00 0.00 0.00 55 1007.1
20260505090004 63 240 2.6 6.1 0.00 0.00 0.00 54 1007.4
20260505084004 63 263 4.3 7.0 0.00 0.00 0.00 54 1007.5
20260505083005 63 238 3.5 6.1 0.00 0.00 0.00 55 1007.3
20260505082005 63 223 2.6 6.1 0.00 0.00 0.00 56 1007.2
20260505081005 63 244 3.5 6.1 0.00 0.00 0.00 55 1007.1
20260505073005 63 241 2.6 5.2 0.00 0.00 0.00 55 1007.1
20260505071004 64 263 2.6 6.1 0.00 0.00 0.00 54 1007.1
20260505070005 64 233 2.6 5.2 0.00 0.00 0.00 54 1007.2
20260505065004 64 244 1.7 4.3 0.00 0.00 0.00 54 1007.1
20260505064004 64 251 1.7 7.0 0.00 0.00 0.00 54 1007.2
20260505063005 65 251 3.5 6.1 0.00 0.00 0.00 53 1007.2
20260505062005 65 245 2.6 6.1 0.00 0.00 0.00 53 1007.2
20260505060004 65 253 3.5 7.0 0.00 0.00 0.00 52 1007.5
20260505055004 66 257 1.7 8.7 0.00 0.00 0.00 51 1007.6
20260505054005 66 255 3.5 7.0 0.00 0.00 0.00 51 1007.6
20260505053004 66 260 4.3 7.8 0.00 0.00 0.00 51 1007.6
20260505052004 66 270 3.5 7.8 0.00 0.00 0.00 51 1007.6
20260505051004 66 275 3.5 6.1 0.00 0.00 0.00 50 1007.6
20260505041004 68 269 4.3 7.8 0.00 0.00 0.00 48 1007.1
20260505040005 68 240 2.6 7.8 0.00 0.00 0.00 48 1007.2
20260505035004 68 250 4.3 10.4 0.00 0.00 0.00 48 1006.9
20260505034004 68 257 4.3 10.4 0.00 0.00 0.00 48 1006.7
20260505033004 69 249 4.3 7.8 0.00 0.00 0.00 48 1006.7
20260505031005 69 262 4.3 10.4 0.00 0.00 0.00 48 1006.7
20260505030004 69 242 4.3 7.8 0.00 0.00 0.00 48 1006.8
20260505025004 69 247 4.3 10.4 0.00 0.00 0.00 47 1006.7
20260505024004 69 239 4.3 10.4 0.00 0.00 0.00 47 1006.5
20260505022004 70 262 4.3 8.7 0.00 0.00 0.00 45 1006.2
20260505021004 70 245 3.5 7.0 0.00 0.00 0.00 45 1006.4
20260505015004 70 249 4.3 7.0 0.00 0.00 0.00 44 1006.6
20260505014004 70 258 2.6 8.7 0.00 0.00 0.00 44 1006.3
20260505013005 71 262 2.6 7.0 0.00 0.00 0.00 44 1006.5
20260505012004 71 264 4.3 8.7 0.00 0.00 0.00 43 1006.6
20260505011004 71 252 2.6 6.1 0.00 0.00 0.00 43 1006.6
20260505010004 72 257 2.6 6.1 0.00 0.00 0.00 42 1006.5
20260505005004 72 245 3.5 7.0 0.00 0.00 0.00 42 1006.5
20260505004004 72 256 2.6 5.2 0.00 0.00 0.00 41 1006.6
20260505003003 73 257 3.5 6.1 0.00 0.00 0.00 40 1006.6
20260505002004 73 235 2.6 5.2 0.00 0.00 0.00 39 1006.6
20260505001003 74 234 3.5 5.2 0.00 0.00 0.00 39 1006.6
20260504234005 75 259 4.3 7.8 0.00 0.00 0.00 38 1006.8
20260504233004 75 263 4.3 8.7 0.00 0.00 0.00 36 1006.8
20260504232004 75 258 5.2 10.4 0.00 0.00 0.00 36 1007.0
20260504231004 76 259 4.3 12.2 0.00 0.00 0.00 35 1007.0
20260504230005 76 249 6.1 13.0 0.00 0.00 0.00 35 1007.1
20260504225004 76 243 4.3 10.4 0.00 0.00 0.00 37 1007.1
20260504224004 77 254 5.2 12.2 0.00 0.00 0.00 36 1007.1
20260504223004 77 263 4.3 10.4 0.00 0.00 0.00 36 1007.1
20260504222003 77 257 5.2 10.4 0.00 0.00 0.00 36 1007.2
20260504221004 77 236 6.1 14.8 0.00 0.00 0.00 35 1007.0
20260504220003 77 247 5.2 10.4 0.00 0.00 0.00 35 1006.9
20260504215004 78 236 4.3 10.4 0.00 0.00 0.00 35 1006.9
20260504214004 78 252 6.1 11.3 0.00 0.00 0.00 35 1006.8
20260504213004 78 219 4.3 10.4 0.00 0.00 0.00 37 1006.8
20260504212004 78 223 3.5 10.4 0.00 0.00 0.00 37 1006.8
20260504211004 78 245 5.2 10.4 0.00 0.00 0.00 36 1006.8
20260504210004 78 251 6.1 12.2 0.00 0.00 0.00 36 1007.0
20260504205004 78 258 5.2 10.4 0.00 0.00 0.00 35 1007.0
20260504204004 78 243 7.0 13.0 0.00 0.00 0.00 33 1007.1
20260504203004 78 268 7.8 13.0 0.00 0.00 0.00 35 1007.4
20260504202004 78 212 8.7 14.8 0.00 0.00 0.00 32 1007.4
20260504201003 77 212 6.1 11.3 0.00 0.00 0.00 35 1007.5
20260504200004 78 240 5.2 10.4 0.00 0.00 0.00 36 1007.5
20260504194004 78 252 6.1 11.3 0.00 0.00 0.00 38 1007.9
20260504193004 77 270 5.2 10.4 0.00 0.00 0.00 37 1008.0
20260504192004 77 254 8.7 14.8 0.00 0.00 0.00 37 1008.2
20260504190004 77 282 6.1 12.2 0.00 0.00 0.00 39 1008.5
20260504185004 77 264 3.5 7.0 0.00 0.00 0.00 42 1008.6
20260504184004 77 274 4.3 11.3 0.00 0.00 0.00 42 1008.6
20260504183003 76 257 5.2 10.4 0.00 0.00 0.00 42 1008.7
20260504182004 76 268 4.3 8.7 0.00 0.00 0.00 42 1008.9
20260504181004 75 259 2.6 10.4 0.00 0.00 0.00 42 1008.9
20260504180004 75 236 4.3 10.4 0.00 0.00 0.00 43 1009.2
20260504175004 75 228 4.3 7.8 0.00 0.00 0.00 43 1009.2
20260504174003 74 240 5.2 8.7 0.00 0.00 0.00 45 1009.2
20260504173004 73 239 5.2 8.7 0.00 0.00 0.00 45 1009.3
20260504172004 72 202 4.3 10.4 0.00 0.00 0.00 48 1009.4
20260504171003 72 212 5.2 13.0 0.00 0.00 0.00 47 1009.7